Location: Stara Lesna
(49.1528°N, 20.2911°E)
Time: 11:24:17
(UTC+02:00)

Cosmos 1500 - Pass Details

Date: 21 September 2019
Orbit: 499 x 521 km, 82.5° (Epoch: 15 October)

Event Time Altitude Azimuth Distance (km) Brightness Sun altitude
Rises 04:02:04 0° 355° (N) 2,607 7.1 -22.8°
Reaches altitude 10° 04:04:15 10° 1° (N) 1,718 6.2 -22.5°
Maximum altitude 04:07:54 47° 76° (ENE) 678 4.1 -21.9°
Drops below altitude 10° 04:11:31 10° 151° (SSE) 1,710 5.8 -21.4°
Sets 04:13:41 0° 158° (SSE) 2,592 6.7 -21.1°
